Overview Statistics Trail Chart Weather Telemetry Raw packets
 

This is the latest recevied weather packets stored in our database for station/object WW5JC. If no packets are shown the sender has not sent any weather packets the latest 10 day(s).

<< 104 105 106 107 108 109 110 >>
Time Temp. Humidity Pressure Rain* Wind** Luminosity Snow
1787843065 28.33° C 76% 1018.2 hPa 0 mm - 374 W/m² -
1787842765 28.33° C 77% 1018.3 hPa 0 mm - 359 W/m² -
1787842460 27.78° C 78% 1018.3 hPa 0 mm - 342 W/m² -
1787842155 27.22° C 80% 1018.2 hPa 0 mm - 327 W/m² -
1787841850 27.22° C 81% 1018.3 hPa 0 mm - 316 W/m² -
1787841546 26.67° C 82% 1018.2 hPa 0 mm - 301 W/m² -
1787841244 26.67° C 83% 1018.4 hPa 0 mm - 287 W/m² -
1787840939 26.11° C 83% 1018.3 hPa 0 mm - 272 W/m² -
1787840635 25.56° C 85% 1018.4 hPa 0 mm - 259 W/m² -
1787840330 26.11° C 85% 1018.6 hPa 0 mm - 245 W/m² -
1787840025 25.56° C 87% 1018.4 hPa 0 mm - 231 W/m² -
1787839724 25.56° C 87% 1018.5 hPa 0 mm - 217 W/m² -
1787839419 25° C 88% 1018.6 hPa 0 mm - 204 W/m² -
1787839119 24.44° C 90% 1018.5 hPa 0 mm - 190 W/m² -
1787838818 25° C 90% 1018.4 hPa 0 mm - 176 W/m² -
1787838513 24.44° C 91% 1018.5 hPa 0 mm - 165 W/m² -
1787838212 23.89° C 92% 1018.3 hPa 0 mm - 153 W/m² -
1787837911 23.89° C 92% 1018.1 hPa 0 mm - 141 W/m² -
1787837610 23.89° C 93% 1018.3 hPa 0 mm - 130 W/m² -
1787837305 23.33° C 93% 1018.2 hPa 0 mm - 118 W/m² -
1787837000 23.33° C 94% 1018 hPa 0 mm - 105 W/m² -
1787836695 22.78° C 96% 1018.1 hPa 0 mm - 90 W/m² -
1787836395 22.78° C 95% 1018.1 hPa 0 mm - 71 W/m² -
1787836089 22.78° C 96% 1018 hPa 0 mm - 67 W/m² -
1787835786 22.78° C 97% 1017.7 hPa 0 mm - 56 W/m² -

* Rain latest hour (hover to see other rain measurements)
** Current wind speed in m/s (hover to see current wind gust speed)